Zurück zum Katalog

PALAPA B1

AktivKommunikationGEO
NORAD 14134·PAYLOAD·🇮🇩 Indonesia

Gestartet Jun 18, 1983 von Cape Canaveral Space Force Station

Loading…

TLE

AktuellSource: Space-Track

Epoche: Sep 14, 2026, 22:16 UTC

1 14134U 83059C   26257.92841411 -.00000147  00000-0  00000-0 0  9993
2 14134  11.4780 328.9029 0001477 160.2725 182.8337  1.00206992121680

Verfolge PALAPA B1 in Echtzeit mit AllMySat

Download on the App Store